Location: Newark
(53.7833°N, 9.4833°E)
Time: 16:17:07
(UTC+00:00)

Envisat - Pass Details

Date: 18 December 2019
Orbit: 764 x 766 km, 98.1° (Epoch: 27 January)

Event Time Altitude Azimuth Distance (km) Brightness Sun altitude
Rises 04:40:41 0° 27° (NNE) 3,247 6.5 -24.1°
Reaches altitude 10° 04:44:12 10° 53° (NE) 2,314 6.0 -23.6°
Maximum altitude 04:46:50 14° 84° (E) 2,039 6.1 -23.2°
Drops below altitude 10° 04:49:27 10° 115° (ESE) 2,304 6.5 -22.9°
Sets 04:52:55 0° 141° (SE) 3,224 7.0 -22.4°
